Pittsburgh International Airport
KPIT : now visible

Airfield :











YOU CAN JOIN US ON...

 
LOGIN :

Register | Disclaimer

   EN    FR    IT 

 









Legend :    VFR   Marginal VFR   IFR   Intensive IFR   Very Intensive IFR
Visi :
Ceiling :
>= 8 km
>= 3000ft
5 to 8 km
1000 to 3000 ft
1500m to 5 km
500 to 1000 ft
800 to 1500m
200 to 500 ft
< 800m
< 200 ft
Symbols :   Thunderstorms  Fog  Heavy snow  Heavy precipitations  Wind > 20 kt






- Airport Elevation : 1203 ft
- IATA code : PIT


KPIT - Pittsburgh International

CURRENT METAR :
  • 162051Z 09006KT 10SM FEW150 FEW250 05/M09 A3027 RMK AO2 SLP269 T00501094 55011

EXPIRED METARs :
  • 161951Z 08009KT 10SM FEW150 FEW250 05/M08 A3027 RMK AO2 SLP268 T00501078
  • 161851Z 09009KT 10SM FEW220 05/M07 A3028 RMK AO2 SLP271 T00501067

TAF KPIT
Valid from the 16 at 21:00 until the 18 at 00:00 UTC


162056Z 1621/1724 10007KT P6SM FEW250



MET'MAP, your aeronautical weather chart ! - Copyright ORBIFLY December 2007 - Disclaimer

ORBIFLY MET'MAP TEAM :

Programming & Development : Alexandra Zaïnal
Concept & Development : Baudouin d'Aumeries
Co-Development & Prog : Marc-Olivier Méhu
Technical & hardware support : Manuel Goepfert

Contact : metmap@orbifly.com




SOURCES & CREDITS :

   NOAA       Earth
Advisory